Regional Weather Roundup
Issued by NWS

Home | Current Version | Previous Version | Graphics & Text | Print | Product List | Glossary On
Versions: 1 2 3 4 5 6 7 8 9 10 11 12 13 14 15 16 17 18 19 20 21 22 23 24 25 26 27 28
000
ASUS45 KSLC 101610
RWRUT

UTAH REGIONAL WEATHER ROUNDUP
NATIONAL WEATHER SERVICE SALT LAKE CITY UT
900 AM MST SUN DEC 10 2017

UTZ001>011-023>025-101700-

NORTHERN UTAH

CITY           SKY/WX    TMP DP  RH WIND       PRES   REMARKS
BRIGHAM CITY   SUNNY     18  13  82 CALM      30.68R
HILL AFB       SUNNY     21  12  68 E15       30.63S WCI   7
LOGAN          CLOUDY    20  14  77 S5        30.68S WCI  13
OGDEN          SUNNY     22  13  68 S7        30.64S WCI  13
SALT LAKE CITY SUNNY     25  19  78 SE5       30.66R WCI  19
TOOELE VALLEY  MOSUNNY   23  19  86 CALM      30.67R
WENDOVER       MOCLDY    14  12  92 CALM      30.67R
HEBER CITY       N/A     18  14  86 CALM      30.63S
WEST JORDAN    SUNNY     26  22  87 S5        30.65S WCI  20

$$

UTZ011>015-024>027-101700-

CENTRAL/NORTHEAST UTAH

CITY           SKY/WX    TMP DP  RH WIND       PRES   REMARKS
PROVO AIRPORT  MOSUNNY   23  19  85 SE3       30.68R
MOAB/CANYONLAN PTSUNNY   22   8  55 CALM      30.60R
DELTA          CLOUDY    14  10  85 CALM      30.64S
PRICE          MOSUNNY   29   0  28 CALM      30.57R
RICHFIELD      SUNNY     14   7  73 CALM      30.65R
ROOSEVELT      CLOUDY    18   9  68 CALM      30.66R
VERNAL         CLOUDY    20   8  60 CALM      30.63R

$$

UTZ013>016-019>022-027-101700-

SOUTHERN UTAH

CITY           SKY/WX    TMP DP  RH WIND       PRES   REMARKS
BRYCE CANYON   SUNNY     21  -9  26 W6        30.58S WCI  13
CEDAR CITY     SUNNY     25   7  46 CALM      30.58R
MILFORD        PTSUNNY   18  10  71 W3        30.62S
ST GEORGE      SUNNY     32   9  38 CALM      30.56R
HANKSVILLE     CLOUDY    18   3  53 CALM      30.65R
KANAB          SUNNY     36  -6  17 CALM      30.57R
BLANDING         N/A     29  -1  27 CALM      30.62S

$$

REGIONAL REPORTS     COLORADO/ARIZONA

CITY           SKY/WX    TMP DP  RH WIND       PRES   REMARKS
CRAIG, CO      CLOUDY     9   6  88 CALM      30.60S
GRAND JUNCTION CLOUDY    27   8  44 E5        30.61R WCI  22
RIFLE, CO      CLOUDY    20   8  60 W3        30.64R
MONTROSE, CO   CLOUDY    22   2  42 SE5       30.64R WCI  16
CORTEZ, CO     CLOUDY    22  -1  36 CALM      30.57R
COLORADO CITY    N/A     23   0  36 CALM      30.56R HAZE
PAGE, AZ       PTSUNNY   33  14  45 CALM      30.57R
GRAND CANYON   SUNNY     45  -7  11 NE13      30.53S
KINGMAN, AZ    MOSUNNY   41   7  24 NE8       30.43R
FLAGSTAFF, AZ  SUNNY     37   1  22 NE5       30.52R WCI  33

$$

REGIONAL REPORTS    NEVADA/IDAHO/WYOMING

CITY           SKY/WX    TMP DP  RH WIND       PRES   REMARKS
LAS VEGAS, NV  MOSUNNY   45  10  24 SW3       30.44R
ELY, NY        PTSUNNY   10  -3  55 S14       30.61R WCI  -6
ELKO, NV       CLOUDY    13   8  81 CALM      30.63R
POCATELLO, ID  CLOUDY    10   5  80 E3        30.68R FOG
BURLEY, ID     FOG       18  14  84 CALM      30.65R VSB 1/4
FORT BRIDGER,    N/A     35   1  24 W13       30.56F WCI  26
EVANSTON, WY   CLOUDY    23   7  50 SE5       30.57S WCI  17
ROCK SPRINGS,  CLOUDY    29   4  34 NW3       30.53R

$$




USA.gov is the U.S. government's official web portal to all federal, state and local government web resources and services.